sat.trackr.live / text

‹ back to catalog

STARLINK-34257

NORAD 65225 · 2025-176AD

PAYLOAD ACTIVE UNKNOWN

§ Identity

Operator
Country
US
Launch date
2025-08-14
Launch site
AFETR
Launch vehicle
Mass (kg)
RCS (m²)

Purposes: comms

External: N2YO · Heavens-Above · Gunter

§ Orbital elements

Epoch: 2026-09-20T21:23:42.628704Z

Period
93.85 min
Inclination
53.1607°
Eccentricity
0.0000892
Mean motion
15.34401766 rev/d
Perigee alt
462.1 km
Apogee alt
463.3 km
Semi-major
6,840.8 km
B*
2.9666e-4
RAAN
321.9991°
Arg perigee
71.5877°
Mean anomaly
288.5223°
Rev number
6,300

§ Raw data

STARLINK-342571 65225U 25176AD  26263.89146561  .00009661  00000+0  29666-3 0  99932 65225  53.1607 321.9991 0000892  71.5877 288.5223 15.34401766 63008

JSON: /api/v1/satellites/65225 · /tle

For live sub-satellite position, see the globe view (requires WebGL).

§ Visibility from observer

Set your observer location to see the next 7 days of passes ≥ 10°. The values pass through the URL so the page stays shareable.

No JS? Fill the form by hand. The geolocation button needs JavaScript.